This is the latest recevied weather packets stored in our database for station/object DB0BLK-10. If no packets are shown the sender has not sent any weather packets the latest 10 day(s).
| Time | Temp. | Humidity | Pressure | Rain* | Wind** | Luminosity | Snow |
|---|---|---|---|---|---|---|---|
| 1777863007 | 27.78° C | 34% | 1016.8 hPa | - | - | - | - |
| 1777847696 | 28.89° C | 32% | 1017 hPa | - | - | - | - |
| 1777846795 | 28.89° C | 31% | 1016.8 hPa | - | - | - | - |
| 1777844994 | 28.89° C | 31% | 1016.8 hPa | - | - | - | - |
| 1777840490 | 29.44° C | 31% | 1016.7 hPa | - | - | - | - |
| 1777821572 | 30.56° C | 28% | 1016.2 hPa | - | - | - | - |
| 1777817968 | 30° C | 29% | 1016 hPa | - | - | - | - |
| 1777817068 | 30° C | 29% | 1015.9 hPa | - | - | - | - |
| 1777810760 | 29.44° C | 30% | 1016.7 hPa | - | - | - | - |
| 1777802653 | 28.89° C | 29% | 1017.5 hPa | - | - | - | - |
| 1777800851 | 28.33° C | 29% | 1017.7 hPa | - | - | - | - |
| 1777799951 | 28.33° C | 29% | 1017.9 hPa | - | - | - | - |
| 1777799050 | 28.33° C | 29% | 1017.9 hPa | - | - | - | - |
| 1777797249 | 28.33° C | 29% | 1018 hPa | - | - | - | - |
| 1777796349 | 28.33° C | 29% | 1018.1 hPa | - | - | - | - |
| 1777795448 | 28.33° C | 29% | 1018.1 hPa | - | - | - | - |
| 1777793647 | 28.33° C | 29% | 1018 hPa | - | - | - | - |
| 1777792746 | 28.33° C | 30% | 1017.9 hPa | - | - | - | - |
| 1777791846 | 28.33° C | 30% | 1017.9 hPa | - | - | - | - |
| 1777790945 | 28.33° C | 30% | 1017.9 hPa | - | - | - | - |
| 1777790044 | 28.33° C | 30% | 1017.9 hPa | - | - | - | - |
| 1777789142 | 28.33° C | 30% | 1017.9 hPa | - | - | - | - |
| 1777788241 | 27.78° C | 30% | 1017.9 hPa | - | - | - | - |
| 1777787341 | 27.78° C | 30% | 1017.8 hPa | - | - | - | - |
| 1777786440 | 27.78° C | 30% | 1017.7 hPa | - | - | - | - |
* Rain since midnight (hover to see other rain measurements)
** Current wind speed in m/s (hover to see current wind gust speed)